Vertical_Velocity
1 -1 -5 1 -8 -4 2 3 -2 -1 0 -0 -3 -4 -0 3 3 -1 -7 -4 -2 4 1 -2 0 -2 2 -1 2 -3 6 -0 -12 3 -10 -0 3 5 -3 3 -0 -0 -2 -1 -4
-2 2 -3 -7 -1 1 -1 -7 1 -3 -1 -3 -2 2 -2 -0 -2 -11 3 30 -0 2 3 6 1 2 6 -5 5 5 5 -13 -9 -4 -3 -1 2 -1 3 0 0 1 -0 -1 3
1 -6 -2 -3 -0 -1 -4 -1 0 -1 -0 7 5 -1 -1 4 0 -9 24 5 -2 16 11 7 2 4 7 8 -7 -6 -4 -8 -5 -1 -0 -1 3 0 0 2 -8 -8 -4 -2 1
-4 -3 -0 3 1 -2 -0 2 -3 -2 4 -1 3 1 -2 5 3 2 10 -2 -3 1 -0 -3 4 10 3 2 -5 15 -1 -1 -9 2 2 -1 2 1 0 -9 1 0 6 -0 -2
-0 -0 -0 -1 -2 -4 1 -3 -5 0 3 1 -4 2 6 7 -31 7 3 3 -0 -2 1 15 6 2 -0 -0 10 11 -6 -1 1 1 -2 6 -2 -5 -2 1 1 1 2 -1 4
-5 -2 -4 -0 2 -1 1 -1 -6 8 1 -4 1 1 14 11 -7 -2 3 -5 3 -9 -5 1 6 1 1 -1 5 -7 -1 -4 2 -1 3 0 -1 4 -1 0 -1 5 0 4 -0
0 5 4 0 -4 -2 -1 -2 -7 8 -2 -2 -1 5 5 -31 -11 7 14 7 7 1 -2 -1 -2 4 3 4 -12 -3 6 5 0 -3 -3 4 6 -2 1 -1 0 3 2 2 2
-1 1 -5 2 0 -1 -8 1 -7 5 -4 -0 0 -1 -6 -5 3 -2 -3 1 -2 -2 2 -8 -2 -2 3 2 5 12 13 6 -9 3 -5 15 -14 -6 1 0 -0 2 3 0 6
-5 -2 2 -4 0 2 -3 -4 -1 -1 -1 -1 3 -3 -1 -5 2 1 -4 -2 -3 -0 -2 -6 10 -4 7 3 10 8 -3 4 8 -2 -1 9 -2 -11 -1 2 1 0 2 2 7
-3 -1 -3 -4 -2 -5 -4 -4 -1 -4 -0 -3 -1 6 -1 0 -5 -2 6 -2 3 3 3 10 3 1 2 6 -6 -5 5 3 -4 -9 9 5 -4 -1 -1 3 -2 0 0 2 1
-3 0 4 -1 1 -2 -9 -16 -15 -1 -5 1 -1 -2 -1 -2 2 0 3 2 4 3 3 -1 7 -2 -6 -6 -5 -0 3 -1 -2 -3 5 -6 -1 -5 -0 4 2 0 -1 0 1
2 -1 -2 -1 -0 -5 -2 -9 3 2 -13 1 -2 -2 0 2 -3 7 -1 2 5 -1 1 7 -3 -8 1 3 2 3 2 -3 2 1 6 1 -5 -5 -0 -6 -5 -2 -0 1 3
-2 -2 -2 -0 -2 -4 -2 0 1 3 4 -12 -1 1 1 1 -1 -4 -2 -0 2 3 -0 4 -11 2 4 0 5 -2 -1 -1 -10 1 4 3 0 4 -0 2 4 6 -2 1 -0
-5 3 -1 -5 -2 -0 0 2 2 2 3 -1 1 4 2 5 -0 -1 -4 3 1 1 0 -2 -10 2 3 -0 0 4 -6 0 2 5 -1 3 -6 2 -2 0 2 1 -5 -3 -3
2 -0 -2 -0 0 -0 3 -2 1 1 2 -8 -4 -3 -5 4 1 4 -1 4 -1 -2 8 -10 1 2 6 -17 -1 -4 0 -3 -1 2 3 5 2 -22 5 4 -2 -1 -7 -5 -3
-0 0 -1 -0 -1 1 1 1 0 7 0 -5 -1 -3 -6 -2 -4 0 2 -3 2 3 3 -5 -1 3 -12 -2 -3 -4 6 6 4 1 5 -6 2 -4 -2 -21 -0 1 1 -3 -3
0 -5 -3 3 -4 -0 -1 -0 4 -1 -2 -9 -0 -0 2 -3 -6 1 -0 0 2 5 3 1 -4 -1 5 12 4 7 5 4 8 6 -4 -1 8 -15 -3 -4 -7 -6 -3 -4 3
-1 1 -2 -3 0 -2 0 3 0 2 0 -4 2 -3 3 2 -4 -5 -2 -1 3 1 1 2 7 1 -5 -7 -10 -6 -0 -4 -4 -3 -5 1 -3 -22 -9 -2 -1 -2 -3 5 1
3 -3 2 0 -3 -2 2 -3 3 2 5 3 -11 -0 -2 -3 9 2 2 2 1 -1 2 2 -3 2 1 -1 -4 -2 8 -15 -0 1 10 -4 -1 -2 1 2 2 0 4 0 -0
-2 -3 -2 -4 -4 1 -3 1 1 0 1 1 4 3 1 -1 -0 -1 0 0 -1 1 4 -2 2 -2 -1 10 8 -1 -12 7 3 3 3 2 -1 -3 3 1 1 3 -1 0 4
-6 -5 -3 -2 -1 -2 -0 0 -0 -0 5 4 1 -0 1 4 6 -1 -3 -7 -0 -6 2 1 5 1 7 2 -9 4 6 4 -1 4 3 1 1 1 -1 -1 -2 -1 -0 -1 -2
-7 -2 -6 -5 -5 -0 1 4 1 -1 -0 -1 4 3 3 0 0 1 1 3 1 8 0 -3 2 0 -16 1 -4 -5 -3 -2 -1 1 -0 3 4 0 0 -0 -0 -0 0 0 0
-3 -4 -1 -5 -2 -1 -5 -1 2 -1 -0 -1 -0 2 0 2 2 3 -0 -4 1 2 2 1 -2 2 16 6 10 1 2 -1 0 -0 0 2 4 0 0 0 0 -0 1 1 1
-1 -2 -2 -7 -2 1 0 -1 -3 -2 -1 -0 0 1 -3 -1 -1 -2 -3 -7 -2 2 -1 3 0 4 1 -8 -7 3 2 1 0 1 -0 1 3 2 1 1 1 1 0 2 0
-3 2 -1 -1 -1 -0 1 1 -1 -3 -1 -0 -3 3 6 1 -1 -0 -2 -13 -6 -1 -4 4 2 1 -1 -0 0 -5 -3 1 -0 -2 -10 1 -1 3 2 1 2 1 1 1 1
-3 -0 -1 -0 -0 -0 0 0 2 -5 5 -4 3 -1 2 2 5 -1 10 2 3 -10 0 -3 -3 1 1 1 -1 -0 1 -0 0 -0 1 -1 2 1 1 0 -0 2 0 0 1
-2 -3 -0 -1 -0 2 1 -1 -2 3 -7 1 7 7 -0 1 6 -2 4 -0 -1 7 -0 3 2 -0 3 -0 1 4 3 -0 1 -0 -1 -2 8 0 1 0 3 2 2 2 2
Height
1522 1520 1517 1514 1510 1505 1501 1497 1495 1491 1488 1485 1482 1479 1478 1475 1472 1472 1468 1466 1464 1465 1467 1469 1470 1470 1472 1472 1471 1472 1473 1464 1457 1463 1462 1468 1469 1471 1473 1477 1479 1480 1479 1480 1479
1520 1517 1514 1509 1504 1501 1497 1495 1491 1487 1485 1483 1480 1477 1474 1472 1470 1466 1466 1457 1454 1459 1464 1467 1467 1468 1468 1467 1468 1465 1462 1456 1455 1457 1462 1463 1465 1467 1470 1475 1477 1477 1476 1479 1480
1518 1514 1509 1507 1503 1501 1496 1493 1489 1486 1482 1480 1476 1474 1471 1469 1466 1458 1456 1452 1451 1455 1460 1462 1465 1465 1464 1463 1463 1458 1455 1453 1457 1457 1462 1462 1465 1467 1466 1470 1471 1471 1473 1476 1479
1515 1511 1508 1505 1501 1497 1493 1489 1485 1482 1479 1476 1473 1470 1468 1468 1463 1454 1452 1451 1452 1453 1455 1458 1460 1462 1458 1457 1453 1454 1452 1454 1455 1457 1460 1461 1463 1465 1465 1465 1469 1471 1470 1473 1478
1512 1510 1506 1502 1498 1494 1491 1487 1481 1477 1475 1471 1468 1467 1466 1463 1457 1454 1453 1452 1452 1451 1452 1454 1455 1457 1453 1449 1451 1448 1446 1453 1456 1458 1457 1458 1461 1462 1464 1465 1466 1467 1469 1470 1476
1511 1506 1502 1498 1496 1491 1485 1481 1477 1471 1468 1464 1462 1462 1461 1458 1451 1450 1450 1450 1449 1448 1449 1451 1451 1451 1450 1446 1446 1444 1446 1448 1452 1454 1456 1456 1458 1461 1459 1461 1463 1464 1466 1468 1473
1508 1505 1501 1497 1491 1486 1482 1476 1470 1465 1461 1458 1458 1458 1457 1453 1448 1447 1447 1447 1446 1444 1446 1447 1447 1449 1444 1443 1445 1443 1446 1444 1447 1451 1457 1457 1458 1454 1457 1459 1461 1464 1464 1469 1473
1506 1503 1497 1492 1488 1482 1475 1470 1466 1460 1457 1455 1454 1455 1453 1449 1447 1445 1444 1443 1442 1440 1441 1445 1445 1446 1444 1439 1437 1440 1442 1446 1437 1446 1454 1456 1446 1448 1454 1457 1460 1463 1463 1467 1472
1505 1499 1493 1487 1482 1477 1472 1467 1462 1456 1456 1450 1452 1452 1451 1448 1447 1445 1444 1443 1441 1439 1439 1441 1445 1445 1442 1441 1437 1432 1430 1432 1432 1436 1446 1454 1449 1444 1450 1453 1457 1460 1462 1466 1471
1501 1496 1491 1485 1480 1474 1471 1466 1459 1456 1454 1451 1452 1453 1449 1448 1445 1443 1441 1441 1441 1439 1440 1442 1441 1440 1436 1439 1430 1421 1425 1422 1425 1428 1439 1446 1449 1441 1446 1451 1453 1458 1461 1463 1468
1498 1492 1487 1483 1479 1475 1470 1463 1461 1457 1455 1457 1455 1453 1447 1446 1443 1440 1438 1439 1439 1438 1433 1437 1436 1435 1434 1425 1426 1421 1418 1418 1420 1423 1434 1435 1438 1442 1444 1449 1452 1455 1459 1463 1465
1494 1491 1488 1484 1478 1476 1473 1472 1473 1471 1460 1452 1452 1449 1446 1444 1442 1437 1436 1438 1436 1432 1431 1434 1429 1429 1432 1428 1431 1427 1418 1414 1418 1423 1432 1430 1435 1436 1443 1444 1448 1450 1457 1462 1466
1494 1489 1484 1480 1479 1476 1474 1473 1470 1468 1465 1453 1450 1448 1446 1444 1440 1435 1435 1435 1433 1431 1430 1427 1420 1426 1431 1434 1436 1427 1416 1412 1416 1423 1429 1432 1438 1436 1438 1441 1443 1445 1452 1459 1461
1490 1485 1482 1480 1477 1474 1473 1472 1469 1467 1464 1450 1449 1447 1445 1442 1438 1434 1433 1435 1433 1428 1427 1425 1422 1425 1419 1425 1436 1432 1415 1413 1415 1425 1433 1432 1429 1431 1431 1433 1438 1443 1450 1456 1458
1489 1485 1481 1475 1477 1475 1473 1470 1468 1468 1455 1452 1449 1446 1443 1441 1437 1433 1433 1432 1429 1428 1431 1415 1418 1419 1419 1413 1427 1427 1413 1414 1418 1421 1428 1439 1439 1410 1420 1426 1428 1433 1441 1447 1450
1489 1484 1481 1479 1476 1475 1471 1467 1467 1465 1455 1453 1451 1447 1441 1437 1434 1432 1432 1432 1430 1429 1429 1422 1421 1419 1413 1416 1417 1421 1418 1424 1425 1431 1423 1424 1433 1424 1414 1407 1415 1426 1431 1436 1445
1488 1483 1477 1475 1476 1472 1469 1468 1464 1460 1461 1456 1452 1447 1442 1436 1430 1430 1430 1428 1425 1423 1420 1416 1413 1414 1413 1412 1415 1418 1420 1411 1421 1425 1417 1408 1433 1408 1396 1404 1408 1415 1424 1431 1439
1484 1480 1480 1477 1475 1472 1468 1468 1463 1471 1464 1463 1457 1447 1441 1437 1432 1428 1424 1419 1424 1426 1420 1412 1405 1405 1404 1403 1409 1412 1414 1402 1402 1413 1411 1421 1417 1395 1394 1402 1406 1412 1417 1427 1435
1483 1479 1478 1478 1475 1472 1472 1468 1472 1471 1471 1467 1455 1445 1439 1439 1442 1433 1423 1424 1424 1422 1419 1408 1400 1398 1398 1402 1404 1409 1411 1402 1413 1416 1395 1401 1395 1397 1397 1397 1404 1407 1413 1419 1425
1482 1480 1481 1476 1472 1470 1471 1474 1475 1474 1473 1471 1462 1453 1446 1441 1442 1436 1430 1427 1425 1426 1423 1410 1402 1394 1398 1401 1401 1401 1406 1417 1421 1409 1399 1403 1400 1381 1392 1395 1401 1404 1407 1414 1420
1481 1480 1481 1478 1475 1473 1474 1477 1476 1474 1474 1472 1465 1459 1452 1449 1445 1439 1430 1424 1426 1422 1418 1411 1407 1399 1399 1395 1392 1409 1410 1409 1407 1404 1400 1394 1387 1389 1394 1396 1396 1401 1404 1408 1414
1483 1483 1484 1481 1481 1485 1481 1482 1480 1474 1473 1471 1468 1461 1456 1453 1445 1442 1433 1431 1426 1426 1417 1409 1401 1392 1387 1395 1389 1394 1407 1402 1396 1411 1404 1402 1389 1397 1398 1398 1400 1401 1404 1407 1412
1485 1484 1482 1479 1485 1488 1487 1484 1481 1476 1474 1471 1468 1465 1461 1454 1453 1438 1432 1427 1427 1424 1419 1413 1395 1387 1392 1398 1393 1393 1404 1409 1407 1402 1402 1390 1389 1399 1401 1400 1402 1403 1404 1406 1410
1487 1486 1485 1485 1491 1493 1491 1487 1483 1479 1475 1474 1470 1465 1464 1456 1449 1442 1438 1428 1427 1423 1418 1409 1398 1393 1377 1376 1385 1395 1401 1407 1401 1394 1404 1399 1398 1399 1400 1399 1403 1404 1405 1406 1409
1494 1498 1496 1493 1490 1493 1494 1489 1484 1482 1477 1474 1468 1466 1467 1464 1451 1444 1437 1433 1424 1420 1417 1414 1399 1395 1390 1385 1381 1389 1400 1405 1408 1395 1395 1403 1401 1401 1402 1402 1404 1405 1405 1406 1408
1496 1499 1499 1495 1493 1492 1491 1487 1486 1483 1482 1472 1471 1467 1465 1464 1455 1447 1444 1444 1433 1420 1420 1415 1400 1397 1391 1385 1378 1393 1400 1405 1405 1402 1395 1402 1406 1407 1407 1407 1407 1407 1407 1408 1409
1498 1498 1497 1496 1496 1492 1489 1489 1486 1485 1478 1475 1472 1467 1460 1455 1453 1446 1442 1439 1437 1434 1425 1418 1407 1397 1388 1393 1384 1399 1408 1407 1412 1423 1409 1406 1416 1412 1411 1413 1413 1413 1412 1412 1412